Flag for France Weather past 2 weeks in Bordeaux, France

Now
36 °F

Clear.


Feels Like: 36 °F
Forecast: 38 / 64 °F
Wind: 1 mph from East

Location: Bordeaux / Merignac

Current Time: Mar 7, 2015 at 5:25:38 AM

Latest Report: Mar 7, 2015 at 5:00 AM


Visibility: N/A

Pressure: 30.39 "Hg

Humidity: 87%

Dew point: 32 °F

Location of BordeauxLocation

Historic Weather in Bordeaux — Graph

°F

Bordeaux temperature yesterday

Maximum temperature yesterday: 61 °F (at 4:00 PM)
Minimum temperature yesterday: 32 °F (at 7:00 AM)
Average temperature yesterday: 46 °F

Past Weeks' High & Low Weather Summary

 TemperatureHumidityPressure
High61 °F (Mar 6, 4:00 PM)100% (Feb 20, 5:30 AM)30.74 "Hg (Feb 20, 5:30 AM)
Low32 °F (Feb 22, 7:00 AM)33% (Mar 6, 1:00 PM)29.71 "Hg (Feb 21, 3:00 AM)
Average48 °F82%30.18 "Hg
* Reported Feb 20 4:00 AM — Mar 7 4:00 AM, Bordeaux, Weather by CustomWeather, © 2015

Note: Actual official high and low records may vary slightly from our data, if they occured in-between our weather recording intervals... More about our weather records

Advertising

Bordeaux weather history for previous 24 hours

 ConditionsComfort  
Time TempWeatherWind HumidityBarometerVisibility
4:00 AM
Sat, Mar 7
37 °FClear.3 mph81%30.39 "HgN/A
3:30 AM39 °FClear.No wind81%30.42 "HgN/A
3:00 AM41 °FClear.5 mph81%30.42 "HgN/A
2:30 AM37 °FClear.3 mph87%30.45 "HgN/A
2:00 AM39 °FClear.2 mph81%30.42 "HgN/A
1:30 AM39 °FClear.3 mph81%30.45 "HgN/A
1:00 AM39 °FClear.No wind87%30.42 "HgN/A
12:30 AM39 °FClear.No wind81%30.42 "HgN/A
12:00 AM41 °FClear.No wind81%30.42 "HgN/A
11:30 PM
Fri, Mar 6
43 °FClear.1 mph76%30.42 "HgN/A
11:00 PM43 °FClear.2 mph76%30.42 "HgN/A
10:30 PM45 °FClear.2 mph71%30.45 "HgN/A
10:00 PM45 °FClear.3 mph71%30.45 "HgN/A
9:30 PM46 °FClear.2 mph71%30.45 "HgN/A
9:00 PM48 °FClear.3 mph66%30.45 "HgN/A
8:30 PM48 °FClear.No wind71%30.45 "HgN/A
8:00 PM50 °FClear.3 mph58%30.45 "HgN/A
7:30 PM54 °FClear.3 mph47%30.45 "HgN/A
7:00 PM57 °FClear.3 mph41%30.45 "HgN/A
6:30 PM59 °FClear.3 mph39%30.45 "HgN/A
6:00 PM61 °FPassing clouds.6 mph34%30.45 "HgN/A
5:30 PM61 °FClear.6 mph34%30.45 "HgN/A
5:00 PM61 °FPassing clouds.8 mph34%30.45 "HgN/A
4:30 PM61 °FClear.9 mph34%30.48 "HgN/A
4:00 PM61 °FClear.8 mph34%30.48 "HgN/A
3:30 PM59 °FPassing clouds.8 mph36%30.48 "HgN/A
3:00 PM59 °FClear.7 mph36%30.51 "HgN/A
2:30 PM57 °FClear.6 mph33%30.51 "HgN/A
2:00 PM57 °FClear.9 mph36%30.54 "HgN/A
1:30 PM55 °FPassing clouds.9 mph33%30.54 "HgN/A
1:00 PM55 °FClear.8 mph33%30.54 "HgN/A
12:30 PM54 °FPassing clouds.7 mph44%30.57 "HgN/A
12:00 PM52 °FClear.8 mph41%30.57 "HgN/A
11:30 AM50 °FClear.9 mph50%30.57 "HgN/A
11:00 AM48 °FClear.8 mph54%30.60 "HgN/A
10:30 AM48 °FClear.7 mph54%30.60 "HgN/A
10:00 AM46 °FClear.9 mph62%30.60 "HgN/A
9:30 AM43 °FClear.8 mph66%30.60 "HgN/A
9:00 AM43 °FClear.6 mph71%30.63 "HgN/A
8:30 AM39 °FClear.6 mph75%30.63 "HgN/A
8:00 AM36 °FClear.5 mph87%30.63 "HgN/A
7:30 AM34 °FClear.6 mph93%30.63 "HgN/A
7:00 AM32 °FClear.5 mph93%30.63 "HgN/A
6:30 AM34 °FClear.2 mph87%30.63 "HgN/A
6:00 AM36 °FClear.No wind81%30.63 "HgN/A
5:30 AM36 °FClear.3 mph81%30.63 "HgN/A
5:00 AM36 °FClear.3 mph87%30.60 "HgN/A
Weather by CustomWeather, © 2015

See weather overviewHow to use our weather pages